This is the latest recevied weather packets stored in our database for station/object VK6WB. If no packets are shown the sender has not sent any weather packets the latest 10 day(s).
| Time | Temp. | Humidity | Pressure | Rain* | Wind** | Luminosity | Snow |
|---|---|---|---|---|---|---|---|
| 1777771805 | 16.11° C | 10% | 1023 hPa | 0 mm | - | 0 W/m² | - |
| 1777771204 | 15.56° C | 10% | 1022.9 hPa | 0 mm | - | 0 W/m² | - |
| 1777770604 | 15.56° C | 10% | 1022.9 hPa | 0 mm | - | 0 W/m² | - |
| 1777770004 | 15° C | 10% | 1022.9 hPa | 0 mm | - | 0 W/m² | - |
| 1777769404 | 14.44° C | 10% | 1022.9 hPa | 0 mm | - | 0 W/m² | - |
| 1777768804 | 13.89° C | 10% | 1022.9 hPa | 0 mm | - | 0 W/m² | - |
| 1777768204 | 13.33° C | 10% | 1022.9 hPa | 0 mm | - | 0 W/m² | - |
| 1777767603 | 12.22° C | 10% | 1022.7 hPa | 0 mm | - | 0 W/m² | - |
| 1777767004 | 12.22° C | 10% | 1022.7 hPa | 0 mm | - | 0 W/m² | - |
| 1777766405 | 11.67° C | 10% | 1022.5 hPa | 0 mm | - | 0 W/m² | - |
| 1777765804 | 11.11° C | 10% | 1022.4 hPa | 0 mm | - | 0 W/m² | - |
| 1777765204 | 10.56° C | 10% | 1022.3 hPa | 0 mm | - | 11 W/m² | - |
| 1777764604 | 9.44° C | 10% | 1022.2 hPa | 0 mm | - | 11 W/m² | - |
| 1777764004 | 9.44° C | 10% | 1022 hPa | 0 mm | - | 11 W/m² | - |
| 1777763404 | 9.44° C | 10% | 1022.1 hPa | 0 mm | - | 11 W/m² | - |
| 1777762804 | 8.89° C | 10% | 1021.9 hPa | 0 mm | - | 11 W/m² | - |
| 1777762204 | 8.89° C | 10% | 1021.8 hPa | 0 mm | - | 11 W/m² | - |
| 1777761603 | 8.89° C | 10% | 1021.7 hPa | 0 mm | - | 11 W/m² | - |
| 1777761004 | 8.33° C | 10% | 1021.5 hPa | 0 mm | - | 11 W/m² | - |
| 1777760404 | 8.33° C | 10% | 1021.5 hPa | 0 mm | - | 11 W/m² | - |
| 1777759804 | 8.33° C | 11% | 1021.5 hPa | 0 mm | - | 11 W/m² | - |
| 1777759204 | 7.78° C | 14% | 1021.5 hPa | 0 mm | - | 11 W/m² | - |
| 1777758603 | 7.22° C | 19% | 1021.4 hPa | 0 mm | - | 11 W/m² | - |
| 1777758004 | 7.78° C | 22% | 1021.4 hPa | 0 mm | - | 11 W/m² | - |
| 1777757403 | 7.78° C | 22% | 1021.4 hPa | 0 mm | - | 11 W/m² | - |
* Rain latest hour (hover to see other rain measurements)
** Current wind speed in m/s (hover to see current wind gust speed)